• In Deutschland
  • Länderverzeichnis
  • Für 7 Tage
  • Wassertemperatur
  • Satellitenkarten
  • Wetterkarte
  • Widgets
  • user-avatar
    Anmelden

    Stündliche Wetter Inowrocław

    Heute, 17 Februar, Samstag

    Zeit Temperatur Niederschläge Wind Luftdruck Luftfeuchtigkeit
    00:00 -2°C° 0 mm 4 m/S 760 mmHg 90%
    01:00 -2°C° 0 mm 5 m/S 760 mmHg 90%
    02:00 -2°C° 0 mm 5 m/S 760 mmHg 90%
    03:00 -2°C° 0 mm 5 m/S 760 mmHg 90%
    04:00 -2°C° 0 mm 5 m/S 760 mmHg 90%
    05:00 -2°C° 0 mm 5 m/S 760 mmHg 91%
    06:00 -2°C° 0 mm 5 m/S 760 mmHg 91%
    07:00 -2°C° 0 mm 4 m/S 759 mmHg 91%
    08:00 -1°C° 0 mm 4 m/S 759 mmHg 90%
    09:00 -1°C° 0 mm 4 m/S 759 mmHg 89%
    10:00 -1°C° 0 mm 4 m/S 759 mmHg 87%
    11:00 0°C° 0 mm 4 m/S 759 mmHg 86%
    12:00 0°C° 0 mm 4 m/S 759 mmHg 84%
    13:00 +1°C° 0 mm 4 m/S 759 mmHg 82%
    14:00 +1°C° 0 mm 3 m/S 759 mmHg 83%
    15:00 +1°C° 0 mm 3 m/S 759 mmHg 84%
    16:00 +2°C° 0 mm 2 m/S 759 mmHg 85%
    17:00 +1°C° 0 mm 2 m/S 759 mmHg 86%
    18:00 +1°C° 0 mm 2 m/S 759 mmHg 88%
    19:00 -1°C° 0 mm 2 m/S 759 mmHg 89%
    20:00 -1°C° 0 mm 2 m/S 759 mmHg 89%
    21:00 -1°C° 0 mm 2 m/S 760 mmHg 89%
    22:00 -1°C° 0 mm 2 m/S 760 mmHg 89%
    23:00 -2°C° 0 mm 2 m/S 760 mmHg 90%

    Morgen, 18 Februar, Sonntag

    Zeit Temperatur Niederschläge Wind Luftdruck Luftfeuchtigkeit
    00:00 -2°C° 0 mm 2 m/S 760 mmHg 91%
    01:00 -2°C° 0 mm 2 m/S 760 mmHg 92%
    02:00 -2°C° 0 mm 2 m/S 761 mmHg 93%
    03:00 -3°C° 0 mm 2 m/S 761 mmHg 93%
    04:00 -3°C° 0 mm 2 m/S 761 mmHg 93%
    05:00 -3°C° 0 mm 2 m/S 762 mmHg 93%
    06:00 -3°C° 0 mm 2 m/S 762 mmHg 92%
    07:00 -3°C° 0 mm 2 m/S 762 mmHg 91%
    08:00 -2°C° 0 mm 2 m/S 762 mmHg 85%
    09:00 -2°C° 0 mm 2 m/S 763 mmHg 79%
    10:00 -1°C° 0 mm 2 m/S 763 mmHg 73%
    11:00 +1°C° 0 mm 2 m/S 763 mmHg 69%
    12:00 +1°C° 0 mm 2 m/S 763 mmHg 65%
    13:00 +2°C° 0 mm 2 m/S 763 mmHg 61%
    14:00 +3°C° 0 mm 1 m/S 763 mmHg 63%
    15:00 +2°C° 0 mm 1 m/S 763 mmHg 65%
    16:00 +2°C° 0 mm 1 m/S 763 mmHg 67%
    17:00 +2°C° 0 mm 1 m/S 763 mmHg 69%
    18:00 +1°C° 0 mm 1 m/S 763 mmHg 72%
    19:00 -1°C° 0 mm 0 m/S 763 mmHg 74%
    20:00 0°C° 0 mm 1 m/S 763 mmHg 75%
    21:00 0°C° 0 mm 1 m/S 763 mmHg 76%
    22:00 0°C° 0 mm 1 m/S 763 mmHg 76%
    23:00 0°C° 0 mm 1 m/S 763 mmHg 77%

    übermorgen, 19 Februar, Montag

    Zeit Temperatur Niederschläge Wind Luftdruck Luftfeuchtigkeit
    00:00 -2°C° 0 mm 2 m/S 763 mmHg 77%
    01:00 -2°C° 0 mm 2 m/S 763 mmHg 78%
    02:00 -2°C° 0 mm 2 m/S 763 mmHg 78%
    03:00 -2°C° 0 mm 2 m/S 762 mmHg 78%
    04:00 -2°C° 0 mm 2 m/S 762 mmHg 78%
    05:00 -2°C° 0 mm 2 m/S 762 mmHg 78%
    06:00 -2°C° 0 mm 2 m/S 762 mmHg 79%
    07:00 -1°C° 0 mm 1 m/S 761 mmHg 79%
    08:00 -2°C° 0 mm 2 m/S 761 mmHg 75%
    09:00 -1°C° 0 mm 2 m/S 761 mmHg 70%
    10:00 +1°C° 0 mm 2 m/S 761 mmHg 66%
    11:00 +1°C° 0 mm 2 m/S 761 mmHg 63%
    12:00 +2°C° 0 mm 2 m/S 761 mmHg 60%
    13:00 +3°C° 0 mm 2 m/S 760 mmHg 57%
    14:00 +2°C° 0 mm 2 m/S 760 mmHg 59%
    15:00 +3°C° 0 mm 1 m/S 760 mmHg 62%
    16:00 +3°C° 0 mm 1 m/S 760 mmHg 64%
    17:00 +2°C° 0 mm 1 m/S 759 mmHg 66%
    18:00 -1°C° 0 mm 2 m/S 759 mmHg 69%
    19:00 -1°C° 0 mm 2 m/S 759 mmHg 71%
    20:00 -2°C° 0 mm 2 m/S 759 mmHg 72%
    21:00 -2°C° 0 mm 2 m/S 759 mmHg 73%
    22:00 -2°C° 0 mm 2 m/S 759 mmHg 73%
    23:00 -2°C° 0 mm 2 m/S 759 mmHg 74%

    20 Februar, Dienstag

    Zeit Temperatur Niederschläge Wind Luftdruck Luftfeuchtigkeit
    00:00 -2°C° 0 mm 2 m/S 759 mmHg 74%
    01:00 -2°C° 0 mm 2 m/S 759 mmHg 75%
    02:00 -2°C° 0 mm 2 m/S 759 mmHg 76%
    03:00 -2°C° 0 mm 2 m/S 758 mmHg 76%
    04:00 -3°C° 0 mm 2 m/S 758 mmHg 77%
    05:00 -3°C° 0 mm 2 m/S 758 mmHg 77%
    06:00 -4°C° 0 mm 3 m/S 758 mmHg 77%
    07:00 -4°C° 0 mm 3 m/S 758 mmHg 77%
    08:00 -2°C° 0 mm 3 m/S 758 mmHg 72%
    09:00 -2°C° 0 mm 4 m/S 758 mmHg 67%
    10:00 -1°C° 0 mm 4 m/S 758 mmHg 62%
    11:00 -1°C° 0 mm 4 m/S 758 mmHg 60%
    12:00 0°C° 0 mm 4 m/S 758 mmHg 58%
    13:00 +1°C° 0 mm 4 m/S 758 mmHg 56%
    14:00 0°C° 0 mm 4 m/S 757 mmHg 58%
    15:00 0°C° 0 mm 4 m/S 757 mmHg 61%
    16:00 0°C° 0 mm 4 m/S 757 mmHg 64%
    17:00 0°C° 0 mm 3 m/S 757 mmHg 69%
    18:00 -1°C° 0 mm 3 m/S 758 mmHg 74%
    19:00 -2°C° 0 mm 3 m/S 758 mmHg 78%
    20:00 -2°C° 0 mm 3 m/S 758 mmHg 80%
    21:00 -4°C° 0 mm 3 m/S 758 mmHg 81%
    22:00 -4°C° 0 mm 3 m/S 758 mmHg 83%
    23:00 -4°C° 0 mm 3 m/S 758 mmHg 84%

    21 Februar, Mittwoch

    Zeit Temperatur Niederschläge Wind Luftdruck Luftfeuchtigkeit
    00:00 -4°C° 0 mm 3 m/S 758 mmHg 84%
    01:00 -4°C° 0 mm 3 m/S 758 mmHg 85%
    02:00 -4°C° 0 mm 3 m/S 758 mmHg 85%
    03:00 -4°C° 0 mm 3 m/S 758 mmHg 86%
    04:00 -4°C° 0 mm 4 m/S 758 mmHg 86%
    05:00 -4°C° 0 mm 4 m/S 758 mmHg 86%
    06:00 -4°C° 0 mm 3 m/S 758 mmHg 85%
    07:00 -4°C° 0 mm 3 m/S 758 mmHg 85%
    08:00 -4°C° 0 mm 4 m/S 758 mmHg 81%
    09:00 -3°C° 0 mm 4 m/S 758 mmHg 77%
    10:00 -2°C° 0 mm 4 m/S 759 mmHg 73%
    11:00 -2°C° 0 mm 4 m/S 758 mmHg 70%
    12:00 -2°C° 0 mm 4 m/S 758 mmHg 68%
    13:00 -2°C° 0 mm 4 m/S 758 mmHg 65%
    14:00 -2°C° 0 mm 4 m/S 758 mmHg 66%
    15:00 -2°C° 0 mm 4 m/S 758 mmHg 66%
    16:00 -2°C° 0 mm 4 m/S 758 mmHg 67%
    17:00 -3°C° 0 mm 4 m/S 759 mmHg 68%
    18:00 -3°C° 0 mm 4 m/S 759 mmHg 70%
    19:00 -4°C° 0 mm 4 m/S 759 mmHg 71%
    20:00 -4°C° 0 mm 4 m/S 760 mmHg 71%
    21:00 -5°C° 0 mm 4 m/S 760 mmHg 71%
    22:00 -5°C° 0 mm 4 m/S 760 mmHg 71%
    23:00 -5°C° 0 mm 4 m/S 760 mmHg 71%

    22 Februar, Donnerstag

    Zeit Temperatur Niederschläge Wind Luftdruck Luftfeuchtigkeit
    00:00 -5°C° 0 mm 4 m/S 760 mmHg 70%
    01:00 -5°C° 0 mm 4 m/S 760 mmHg 70%
    02:00 -7°C° 0 mm 4 m/S 760 mmHg 69%
    03:00 -7°C° 0 mm 4 m/S 760 mmHg 69%
    04:00 -7°C° 0 mm 4 m/S 760 mmHg 68%
    05:00 -7°C° 0 mm 4 m/S 760 mmHg 68%
    06:00 -8°C° 0 mm 4 m/S 760 mmHg 68%
    07:00 -8°C° 0 mm 4 m/S 760 mmHg 68%
    08:00 -8°C° 0 mm 4 m/S 760 mmHg 66%
    09:00 -8°C° 0 mm 4 m/S 760 mmHg 63%
    10:00 -8°C° 0 mm 4 m/S 760 mmHg 61%
    11:00 -7°C° 0 mm 4 m/S 760 mmHg 58%
    12:00 -7°C° 0 mm 4 m/S 759 mmHg 56%
    13:00 -7°C° 0 mm 4 m/S 759 mmHg 53%
    14:00 -7°C° 0 mm 4 m/S 759 mmHg 54%
    15:00 -7°C° 0 mm 4 m/S 759 mmHg 54%
    16:00 -7°C° 0 mm 4 m/S 758 mmHg 55%
    17:00 -7°C° 0 mm 4 m/S 759 mmHg 57%
    18:00 -7°C° 0 mm 4 m/S 759 mmHg 59%
    19:00 -8°C° 0 mm 4 m/S 759 mmHg 61%
    20:00 -7°C° 0 mm 3 m/S 759 mmHg 61%
    21:00 -7°C° 0 mm 3 m/S 759 mmHg 62%
    22:00 -7°C° 0 mm 3 m/S 759 mmHg 62%
    23:00 -8°C° 0 mm 3 m/S 759 mmHg 63%
    Mehr zeigen